カタログに戻る

STARLINK-4410

運用中通信SSO
NORAD 53204·PAYLOAD·🇺🇸 United States

打ち上げ Jul 22, 2022 から Vandenberg Space Force Base

Loading…

次のパス (今後24時間)

TLE

最新Source: CelesTrak SupGP

元期: Sep 14, 2026, 13:27 UTC

1 53204C 22084R   26257.56090278  .00084082  00000+0  23333-2 0  2573
2 53204  97.4821 321.2973 0000851 147.3316 167.6344 15.36923058    17

AllMySatでSTARLINK-4410をリアルタイム追跡

Download on the App Store